Weather History for Pendleton, OR

Change the Weather History Date:

Thursday, May 23, 2013

  Actual Average Record
Temperature  
Mean Temperature 49 °F 60 °F  
Max Temperature 65 °F 72 °F 95 °F (1934)
Min Temperature 33 °F 47 °F 23 °F (1903)
Degree Days  
Heating Degree Days 16 6  
Month to date heating degree days 154 202  
Since 1 July heating degree days 4941 5149  
Cooling Degree Days 0 1  
Month to date cooling degree days 31 14  
Year to date cooling degree days 31 15  
Moisture  
Dew Point 36 °F    
Average Humidity 66    
Maximum Humidity 96    
Minimum Humidity 36    
Precipitation  
Precipitation 0.00 in 0.04 in 0.41 in (1962)
Month to date precipitation 0.71 0.96  
Year to date precipitation 3.56 6.02  
Snow  
Snow 0.00 in 0.00 in 0.00 in (2002)
Month to date snowfall 0.0 0.0  
Year to date snowfall 0.2 7.7  
Since 1 July snowfall 2.0 15.2  
Snow Depth 0.00 in    
Sea Level Pressure  
Sea Level Pressure 29.96 in    
Wind  
Wind Speed 5 mph (East)    
Max Wind Speed 18 mph    
Max Gust Speed 23 mph    
Visibility 10 miles    
Events      
T = Trace of Precipitation, MM = Missing Value Source: NWS Daily Summary

Daily Weather History Graph

Daily Weather History Graph

Search for Another Location

Airport:

Trip Planner

Search our weather history database for the weather conditions in past years. The results will help you decide how hot, cold, wet, or windy it might be!

Date:

Astronomy

May. 23, 2013 Rise Set
Actual Time 5:15 AM PDT 8:29 PM PDT
Civil Twilight 4:39 AM PDT 9:05 PM PDT
Nautical Twilight 3:53 AM PDT 9:52 PM PDT
Astronomical Twilight 2:55 AM PDT 10:50 PM PDT
Moon 7:04 PM PDT (5/23) 4:09 AM PDT (5/23)
Length of Visible Light 16h 25m
Length of Day
15h 13m
Waxing Gibbous, 97% of the Moon is Illuminated
May 23
Waxing Gibbous
May 24
Full
May 31
Last Quarter
Jun 8
New
Jun 16
First Quarter

Hourly Weather History & Observations

Time (PDT) Temp. Windchill Dew Point Humidity Pressure Visibility Wind Dir Wind Speed Gust Speed Precip Events Conditions
12:53 AM 39.0 °F 33.4 °F 37.0 °F 93% 29.96 in 10.0 mi SE 8.1 mph - N/A   Clear
1:53 AM 36.0 °F 29.6 °F 34.0 °F 93% 29.97 in 10.0 mi East 8.1 mph - N/A   Clear
2:53 AM 35.1 °F 30.1 °F 33.1 °F 92% 29.97 in 10.0 mi SSE 5.8 mph - N/A   Clear
3:53 AM 33.1 °F 27.7 °F 32.0 °F 96% 29.97 in 10.0 mi East 5.8 mph - N/A   Clear
4:53 AM 33.1 °F 26.9 °F 32.0 °F 96% 29.97 in 10.0 mi East 6.9 mph - N/A   Clear
5:53 AM 36.0 °F 30.3 °F 34.0 °F 93% 29.98 in 10.0 mi SSE 6.9 mph - N/A   Clear
6:53 AM 39.0 °F 34.8 °F 36.0 °F 89% 29.99 in 10.0 mi ESE 5.8 mph - N/A   Clear
7:53 AM 43.0 °F 39.5 °F 37.9 °F 82% 30.00 in 10.0 mi SSE 5.8 mph - N/A   Clear
8:53 AM 48.9 °F - 39.9 °F 71% 30.00 in 10.0 mi Calm Calm - N/A   Clear
9:53 AM 52.0 °F - 39.0 °F 61% 29.99 in 10.0 mi Calm Calm - N/A   Clear
10:53 AM 55.0 °F - 36.0 °F 49% 29.98 in 10.0 mi Variable 3.5 mph - N/A   Clear
11:53 AM 57.9 °F - 36.0 °F 44% 29.97 in 10.0 mi Variable 3.5 mph - N/A   Scattered Clouds
12:53 PM 57.9 °F - 35.1 °F 42% 29.95 in 10.0 mi Variable 3.5 mph - N/A   Clear
1:53 PM 61.0 °F - 35.1 °F 38% 29.94 in 10.0 mi NE 4.6 mph - N/A   Scattered Clouds
2:53 PM 59.0 °F - 37.0 °F 44% 29.94 in 10.0 mi NNE 9.2 mph - N/A   Mostly Cloudy
3:53 PM 60.1 °F - 34.0 °F 38% 29.94 in 10.0 mi NE 8.1 mph - N/A   Scattered Clouds
4:53 PM 60.1 °F - 34.0 °F 38% 29.94 in 10.0 mi NNW 5.8 mph - N/A   Overcast
5:53 PM 59.0 °F - 35.1 °F 41% 29.94 in 10.0 mi NW 11.5 mph - N/A   Scattered Clouds
6:53 PM 55.0 °F - 39.0 °F 55% 29.94 in 10.0 mi NW 9.2 mph - N/A   Clear
7:53 PM 53.1 °F - 39.9 °F 61% 29.95 in 10.0 mi WSW 12.7 mph - N/A   Mostly Cloudy
8:53 PM 50.0 °F - 42.1 °F 74% 29.94 in 10.0 mi Calm Calm - N/A   Overcast
9:53 PM 46.0 °F - 41.0 °F 83% 29.96 in 10.0 mi Calm Calm - N/A   Clear
10:53 PM 44.1 °F 42.5 °F 39.9 °F 85% 29.95 in 10.0 mi ENE 3.5 mph - N/A   Clear
11:53 PM 45.0 °F 43.5 °F 39.9 °F 82% 29.94 in 10.0 mi SSE 3.5 mph - N/A   Partly Cloudy